Location: Ch�ze
(42.9000°N, 0.0333°W)
Time: 19:34:10
(UTC+00:00)

Cosmos 1758 Rocket - Pass Details

Date: 24 January 2021
Orbit: 601 x 637 km, 82.5° (Epoch: 07 March)

Event Time Altitude Azimuth Distance (km) Brightness Sun altitude
Rises 19:15:08 0° 199° (SSW) 2,893 7.3 -24.1°
Reaches altitude 10° 19:17:23 10° 204° (SSW) 1,996 6.5 -24.6°
Maximum altitude 19:21:43 53° 281° (WNW) 777 4.3 -25.3°
Enters shadow 19:24:48 19° 353° (N) 1,529 5.6 -25.9°
